Regional Weather Roundup
Issued by NWS Grand Forks, ND

Home | Current Version | Previous Version | Graphics & Text | Print | Product List | Glossary On
Versions: 1 2 3 4 5 6 7 8 9 10 11 12 13 14 15 16 17 18 19 20 21 22 23 24 25 26 27 28 29 30 31 32 33 34 35 36 37 38 39 40 41 42 43 44 45 46 47 48 49 50
000
ASUS43 KFGF 251831
RWRFGF
PRAIRIE TO PINES  WEATHER ROUNDUP
NATIONAL WEATHER SERVICE EASTERN NORTH DAKOTA/GRAND FORKS ND
100 PM CDT SAT OCT 25 2014

 **SATELLITE DATA USED TO AUGMENT SKY COVER AT AUTOMATED STATIONS**
 *****  WEATHER ACROSS EASTERN NORTH DAKOTA  *****

CITY           SKY/WX    TMP DP  RH WIND       PRES   REMARKS
GRAND FORKS    MOSUNNY   57  26  30 NW18G24   30.07F
6HR MIN TEMP:  37; 6HR MAX TEMP:  58;

GRAND FRKS AFB SUNNY     58  27  30 NW15      30.08F
GRAND FRKS NWS   N/A     57 N/A N/A N10         N/A
DEVILS LAKE    SUNNY     55  28  35 W14       30.09S
6HR MIN TEMP:  37; 6HR MAX TEMP:  55;

FARGO          SUNNY     58  29  33 NW18      30.10F
WAHPETON ARPT  CLEAR     59  25  27 N16       30.12S
$$

 ***** WEATHER ACROSS CENTRAL AND WESTERN NORTH DAKOTA  *****

CITY           SKY/WX    TMP DP  RH WIND       PRES   REMARKS
BISMARCK       SUNNY     60  33  36 E6        30.15F
6HR MIN TEMP:  36; 6HR MAX TEMP:  60;

MINOT          SUNNY     57  22  25 VRB3      30.10F
6HR MIN TEMP:  35; 6HR MAX TEMP:  58;

JAMESTOWN      SUNNY     58  29  33 N9        30.13S
6HR MIN TEMP:  38; 6HR MAX TEMP:  58;

MINOT AFB      SUNNY     57  24  27 VRB3      30.10F
GARRISON         N/A     56  31  38 S7        30.12F
WILLISTON      SUNNY     58  30  34 SE9       30.09F
6HR MIN TEMP:  31; 6HR MAX TEMP:  58;

DICKINSON      SUNNY     59  30  33 SE9       30.09F
6HR MIN TEMP:  33; 6HR MAX TEMP:  60;

HETTINGER      SUNNY     61  27  27 S10       30.12F
6HR MIN TEMP:  27; 6HR MAX TEMP:  61;

$$

 *****  OTHER AIRPORT OBSERVATIONS IN OUR AREA  *****

CITY           SKY/WX    TMP DP  RH WIND       PRES   REMARKS
WALHALLA         N/A     57  25  28 NW21G28   30.04F
GRAFTON AIRPOR FAIR      55  28  35 NW18      30.05F
VALLEY CITY AR FAIR      57  27  30 NW15      30.12F
CANDO          FAIR      57  25  28 W14G21    30.09S
CAVALIER APRT  FAIR      57  27  30 NW15G26   30.04F
GWINNER        CLEAR     61  32  33 W13       30.13F
ROLLA          FAIR      55  19  24 NW13G20   30.08F
 ***** THE ABOVE OBSERVATIONS ARE NON NWS ARE NOT QUALITY
       CONTROLLED AND MAY MIS-REPORT RAIN FOR SNOW...
$$

  *****  WEATHER ACROSS NORTHERN MINNESOTA  *****

CITY           SKY/WX    TMP DP  RH WIND       PRES   REMARKS
FLAG ISLAND    SUNNY     50  30  46 W25G38    29.91F
WARROAD        SUNNY     54  30  40 NW15G31   29.97F
ROSEAU         SUNNY     55  28  35 NW18G29   29.98F
HALLOCK        SUNNY     57  25  28 NW22      30.03F
THF RVR FALLS  SUNNY    N/A N/A N/A NW23G31   30.03F
6HR MIN TEMP:  39; 6HR MAX TEMP:  54;

BAUDETTE       SUNNY     52  27  38 NW20G32   29.95S
6HR MIN TEMP:  42; 6HR MAX TEMP:  52;

WASKISH        SUNNY     54  34  47 W15G28    29.98F
CROOKSTON      SUNNY     57  28  33 NW22G28   30.06F
STEPHEN NDAWN    N/A     57  28  33 NW20        N/A
GREENBUSH NDAW   N/A     55  27  33 NW20        N/A
$$
  *****  WEATHER ACROSS CENTRAL AND WEST MINNESOTA  *****

CITY           SKY/WX    TMP DP  RH WIND       PRES   REMARKS
FOSSTON        SUNNY     55  25  30 NW16G28   30.06F
BEMIDJI        SUNNY     53  28  38 NW25      30.02S
PARK RAPIDS    SUNNY     55  26  32 NW18      30.04R
6HR MIN TEMP:  36; 6HR MAX TEMP:  56;

ELBOW LAKE     FAIR      56  30  37 NW16G24   30.11S
6HR MIN TEMP:  39; 6HR MAX TEMP:  56;

WADENA         SUNNY     54  28  37 W20G26    30.06F
DETROIT LAKES  SUNNY     54  30  40 NW15G25   30.09S
MOORHEAD       SUNNY     57  19  23 NW15G22   30.11S
FERGUS FALLS   SUNNY     57  25  28 N13G21    30.11F
MORRIS MN      SUNNY     61  32  33 NW15      30.11S
STAPLES        SUNNY     55  25  30 NW17G23   30.05S
$$
  *****  WEATHER ELSEWHERE ACROSS MINNESOTA  *****

CITY           SKY/WX    TMP DP  RH WIND       PRES   REMARKS
DULUTH         SUNNY     56  30  37 W23G29    29.90F
6HR MIN TEMP:  46; 6HR MAX TEMP:  56;

INTRNTL FALLS  SUNNY     53  30  41 W17G33    29.90R
6HR MIN TEMP:  40; 6HR MAX TEMP:  53;

ELY            SUNNY     54  28  37 NW18G28   29.85S
CLOQUET        SUNNY     57  25  28 W18G28    29.93F
WHEATON        SUNNY     57  30  35 NW15      30.14F
BRAINERD       SUNNY     56  28  34 NW14G21   30.02F
6HR MIN TEMP:  44; 6HR MAX TEMP:  56;

HIBBING        SUNNY     56  29  35 NW18G26   29.92S
6HR MIN TEMP:  45; 6HR MAX TEMP:  56;

ALEXANDRIA     SUNNY     56  28  34 NW17G23   30.11S
6HR MIN TEMP:  42; 6HR MAX TEMP:  56;

SAINT CLOUD    MOSUNNY   63  27  25 NW18G28   30.05S
6HR MIN TEMP:  49; 6HR MAX TEMP:  63;

MINNEAPOLIS    PTSUNNY   58  30  34 NW18      30.05S
6HR MIN TEMP:  50; 6HR MAX TEMP:  60;

$$

  *****  WEATHER ACROSS SOUTH DAKOTA  *****

CITY           SKY/WX    TMP DP  RH WIND       PRES   REMARKS
SIOUX FALLS    SUNNY     65  36  34 NE7       30.14F
6HR MIN TEMP:  41; 6HR MAX TEMP:  65;

BROOKINGS      NOT AVBL
WATERTOWN      SUNNY     62  30  29 N13G22    30.14F
6HR MIN TEMP:  41; 6HR MAX TEMP:  62;

HURON          SUNNY     64  30  27 N6        30.15F
6HR MIN TEMP:  40; 6HR MAX TEMP:  65;

SISSETON         N/A     62  30  29 NW14G21   30.13S
ABERDEEN       SUNNY     63  33  32 N6        30.16F
6HR MIN TEMP:  38; 6HR MAX TEMP:  63;

MITCHELL       SUNNY     65  31  28 VRB6      30.16F
PIERRE         SUNNY     63  31  30 VRB3      30.14F
6HR MIN TEMP:  37; 6HR MAX TEMP:  63;

MOBRIDGE       SUNNY     61  31  32 S7        30.13F
RAPID CITY     SUNNY     62  30  29 S18       30.12F
6HR MIN TEMP:  32; 6HR MAX TEMP:  63;

$$

  *****  SOME WEATHER IN NEARBY STATES *****

CITY           SKY/WX    TMP DP  RH WIND       PRES   REMARKS
GLASGOW MT     SUNNY     58  32  37 SE17      30.00F
6HR MIN TEMP:  36; 6HR MAX TEMP:  58;

GREAT FALLS MT SUNNY     54  42  64 CALM      29.86F
6HR MIN TEMP:  35; 6HR MAX TEMP:  55;

CHEYENNE WY    SUNNY     71  19  14 S14G21    30.23F
6HR MIN TEMP:  38; 6HR MAX TEMP:  73;

SCOTTSBLUFF NE SUNNY     64  32  30 CALM      30.14F
6HR MIN TEMP:  36; 6HR MAX TEMP:  64;

OMAHA NE       MOSUNNY   70  39  32 E6        30.11F
6HR MIN TEMP:  47; 6HR MAX TEMP:  71;

DES MOINES IA  MOSUNNY   70  39  32 NE9       30.09F
6HR MIN TEMP:  49; 6HR MAX TEMP:  70;

DAVENPORT IA   SUNNY     70  35  27 N13       30.03F
6HR MIN TEMP:  50; 6HR MAX TEMP:  71;

CHICAGO IL     MOSUNNY   69  39  33 W14       29.93F
6HR MIN TEMP:  53; 6HR MAX TEMP:  69;

EAU CLAIRE WI  SUNNY     60  30  32 NW16      29.98F
6HR MIN TEMP:  42; 6HR MAX TEMP:  61;

LA CROSSE WI   SUNNY     65  33  30 NW15      30.00F
6HR MIN TEMP:  43; 6HR MAX TEMP:  66;

$$

  *****  SOME NATIONAL WEATHER *****

CITY           SKY/WX    TMP DP  RH WIND       PRES   REMARKS
LA GUARDIA NY  PTSUNNY   64  40  41 SW8       29.72F
6HR MIN TEMP:  52; 6HR MAX TEMP:  65;

RALEIGH NC     SUNNY     68  42  38 W5        29.96F
6HR MIN TEMP:  39; 6HR MAX TEMP:  68;

ATLANTA GA     SUNNY     73  39  29 N5        30.05F
6HR MIN TEMP:  48; 6HR MAX TEMP:  73;

NEW ORLEANS LA SUNNY     75  49  39 NE6       30.13F
6HR MIN TEMP:  55; 6HR MAX TEMP:  76;

OKLAHOMA CITY  SUNNY     85  58  39 SW8       30.08F
6HR MIN TEMP:  58; 6HR MAX TEMP:  86;

ALBUQUERQUE NM SUNNY     69  37  30 S5        30.32F
6HR MIN TEMP:  50; 6HR MAX TEMP:  69;

SALT LAKE CITY MOSUNNY   74  31  20 S24G31    30.04F
6HR MIN TEMP:  54; 6HR MAX TEMP:  74; 6HR PCP: TRACE;

LOS ANGELES CA MOSUNNY   72  63  73 W9        30.06R



USA.gov is the U.S. government's official web portal to all federal, state and local government web resources and services.